Location: Astronomy Club of Akron Observatory
(40.9700°N, 81.5606°W)
Time: 14:38:02
(UTC-04:00)

N. Korean satellite - Pass Details

Date: 23 February 2019
Orbit: 456 x 510 km, 97.2° (Epoch: 22 March)

Event Time Altitude Azimuth Distance (km) Brightness Sun altitude
Rises 06:11:50 0° 20° (NNE) 2,494 10.4 -11.7°
Reaches altitude 10° 06:14:00 10° 30° (NNE) 1,609 9.6 -11.3°
Maximum altitude 06:17:12 35° 98° (E) 751 8.3 -10.6°
Drops below altitude 10° 06:20:22 10° 166° (SSE) 1,589 9.4 -10.1°
Sets 06:22:29 0° 175° (S) 2,458 10.3 -9.7°
